Theta_e
317 318 318 318 319 319 319 318 319 319 319 318 319 319 319 319 319 320 318 315 315 317 318 319 318 319 319 317 314 311 311 311 312 311 310 309 308 307 307 306 306 305 305 307 308 308 308 309 310 312 314 315 315 314 314 316 316 316 316 316 317 316 317 317 317 316 316 317 317 317 317 317 316 317 317 317 316 316 316 315 316 316 315 314 314 314
316 318 319 319 319 319 319 319 319 318 318 318 318 318 319 319 319 319 317 314 314 316 317 318 318 318 319 318 315 311 311 312 312 311 311 310 308 307 307 306 305 305 305 307 307 308 308 309 310 312 315 315 315 314 315 316 315 315 316 315 316 315 315 315 315 315 314 314 314 314 314 313 313 314 314 313 312 311 310 310 310 309 308 307 307 307
317 318 319 319 319 318 318 318 318 317 317 318 318 318 319 319 320 319 317 314 313 315 317 318 318 318 318 318 315 312 312 312 311 311 310 309 308 307 307 306 305 304 305 306 307 307 308 308 310 312 315 315 315 315 316 316 316 315 315 314 314 314 313 313 312 312 310 310 310 310 309 309 310 310 309 308 307 307 306 306 305 305 305 304 304 304
319 318 319 319 318 317 316 316 316 317 317 318 318 318 319 320 320 320 317 314 313 314 316 317 316 317 318 317 314 312 312 311 309 308 308 308 307 307 306 305 305 305 305 305 306 306 306 308 310 312 314 315 315 315 316 315 315 314 313 312 311 311 310 309 309 308 307 307 307 307 307 307 306 306 305 305 304 304 304 304 304 303 303 302 302 301
319 318 318 318 317 317 317 316 316 317 317 318 319 318 319 320 320 320 318 316 315 315 315 315 317 318 319 319 315 310 309 308 307 306 306 306 306 306 305 305 305 305 304 304 305 305 306 308 310 311 313 314 314 314 314 313 312 311 309 308 308 308 307 306 306 306 306 306 306 305 305 305 305 304 304 303 303 302 302 302 301 301 300 300 300 299
319 317 316 317 316 316 318 317 317 318 318 319 319 319 318 319 319 320 319 318 318 319 316 316 321 322 320 321 318 310 307 308 307 306 307 306 305 305 304 304 304 304 304 303 304 305 306 308 309 310 310 310 311 310 309 308 307 306 306 306 305 305 305 305 305 305 305 305 305 305 305 304 304 303 302 302 301 300 300 299 299 299 298 298 298 297
317 315 316 317 317 318 318 318 318 318 318 320 320 319 318 319 319 319 319 319 320 322 317 315 321 322 320 320 318 311 309 309 307 307 308 306 305 305 305 304 303 303 303 303 304 305 306 307 308 308 308 308 308 307 306 305 304 304 304 304 304 304 304 304 304 304 304 304 303 303 303 303 303 302 301 300 299 299 298 298 297 297 297 297 296 296
317 315 316 318 318 318 318 318 319 317 318 321 319 318 319 319 319 320 320 319 320 321 317 315 318 320 319 319 316 312 312 310 308 307 308 307 306 305 305 305 303 303 303 303 304 305 305 306 306 306 306 305 305 304 304 304 304 303 303 303 303 303 303 303 303 303 302 302 302 302 302 301 301 301 300 298 298 297 297 297 296 296 296 296 296 295
317 316 317 318 318 319 319 319 319 318 319 319 316 317 318 318 319 319 319 319 319 319 319 318 317 318 320 318 314 312 313 313 310 308 308 307 306 305 305 305 303 303 302 303 304 304 305 305 305 304 304 304 303 303 303 303 303 303 302 302 302 302 302 302 302 302 301 301 301 300 300 300 299 299 298 297 296 296 296 296 296 295 295 295 295 295
317 314 316 317 318 319 317 316 317 318 318 316 314 316 316 316 317 318 318 319 318 319 320 320 318 319 321 319 315 314 314 315 314 310 308 308 306 306 305 304 303 302 302 303 303 304 304 304 303 303 303 303 302 302 302 302 302 302 302 302 301 301 301 301 301 300 300 300 299 299 299 299 298 298 297 296 296 295 295 295 295 295 295 294 295 295
313 311 313 316 317 317 314 311 312 315 316 315 316 317 316 316 316 316 317 317 318 320 320 319 319 319 320 320 319 317 316 316 316 312 309 308 307 306 305 304 303 302 302 302 303 303 303 303 302 302 302 302 302 302 302 302 301 301 301 301 301 301 300 300 300 299 299 298 298 298 298 298 298 297 297 296 296 295 295 295 294 294 294 294 294 294
314 313 314 314 314 314 314 312 311 312 314 316 317 317 318 318 316 316 317 316 319 323 319 317 318 319 320 320 319 318 315 316 316 312 309 308 307 306 305 304 303 302 302 302 302 302 302 302 302 302 302 301 301 301 301 301 301 301 300 300 300 300 300 299 299 298 298 298 298 298 297 297 297 296 296 296 295 294 294 294 294 294 294 294 294 294
316 316 316 314 312 313 316 315 312 311 313 316 317 317 320 321 319 320 320 318 321 321 314 313 316 319 319 319 318 317 314 314 315 313 311 309 308 307 305 304 303 302 302 302 302 302 302 302 301 301 301 301 301 301 301 300 300 300 300 299 299 299 299 298 298 298 298 297 297 297 297 297 296 296 295 295 295 294 294 294 294 294 294 294 294 294
319 318 316 315 313 313 316 317 316 314 313 315 317 318 321 323 323 323 323 321 322 318 311 311 315 317 318 317 317 316 313 312 312 312 311 309 307 307 305 304 303 302 302 301 301 301 301 301 301 301 301 301 301 300 300 300 300 299 299 299 299 299 298 298 298 297 297 297 297 297 296 296 296 295 295 295 294 294 294 294 294 294 294 294 294 294
322 322 318 316 316 314 315 317 319 317 314 315 317 318 320 323 324 324 323 322 322 316 311 311 315 318 318 316 313 311 309 308 309 310 310 309 307 307 305 303 302 302 301 301 301 301 301 301 301 301 300 300 301 300 300 300 300 299 299 299 298 298 298 297 297 296 296 296 296 296 296 295 295 295 295 294 294 294 293 294 294 294 294 294 294 293
323 324 319 316 315 314 315 317 318 318 316 315 316 318 320 320 321 320 318 316 316 315 313 313 315 317 316 313 309 307 307 306 307 308 309 309 307 306 305 303 302 302 301 301 301 301 301 300 301 301 301 301 301 300 300 300 300 299 299 299 298 298 297 297 296 296 296 296 296 296 295 295 294 294 294 294 294 293 294 294 294 294 294 293 293 293
323 322 317 313 314 313 314 316 317 318 318 316 316 318 317 317 317 317 315 313 313 317 318 315 315 316 315 313 309 307 307 306 306 307 308 309 307 306 305 303 302 302 301 301 301 301 301 301 301 301 301 301 301 300 300 300 300 300 299 299 298 297 297 296 295 295 295 296 296 295 294 294 293 293 293 293 294 294 294 294 294 293 293 293 292 291
322 320 315 313 315 312 310 313 314 314 316 316 316 317 316 315 316 316 318 317 317 320 320 317 317 317 317 317 312 308 309 307 306 306 307 308 307 306 305 304 302 302 301 301 301 301 301 301 301 301 301 301 301 301 300 300 300 300 299 299 298 297 296 295 295 295 295 295 295 294 293 293 293 293 293 293 293 293 293 293 293 293 292 291 291 290
321 321 315 312 314 311 308 312 315 313 312 313 315 316 316 317 318 317 319 320 321 322 321 319 318 317 318 317 314 311 312 310 307 306 306 307 307 306 306 304 303 302 301 301 301 301 301 301 301 301 301 301 301 301 300 300 300 300 299 298 297 296 295 295 295 295 295 294 294 293 292 292 293 293 293 293 293 293 293 292 292 291 291 291 290 289
318 322 318 311 311 312 310 312 316 314 312 311 312 315 315 317 318 318 318 319 320 322 322 321 319 317 318 318 316 315 314 311 309 306 305 306 307 307 306 305 303 302 302 302 301 301 301 301 301 301 301 301 301 300 300 300 300 300 299 298 296 295 295 295 295 295 294 293 292 292 292 292 292 292 292 292 292 292 292 291 291 291 291 290 290 289
317 320 320 312 309 312 312 313 316 316 314 311 313 315 315 315 315 316 317 318 318 319 321 322 321 319 317 316 317 317 315 313 310 307 307 307 307 306 306 305 304 303 302 302 302 301 301 301 301 301 301 301 301 300 300 300 300 299 299 297 296 295 294 294 295 294 294 293 292 291 291 292 292 292 292 292 292 291 291 291 291 290 290 290 289 289
317 318 319 314 311 313 315 313 313 314 314 314 314 315 316 316 315 317 319 318 316 317 319 320 321 320 315 313 314 315 314 314 312 309 309 308 307 306 306 306 304 303 303 302 302 302 301 301 301 301 301 301 300 300 300 300 300 299 298 297 296 295 294 294 294 294 293 292 291 291 291 291 291 291 291 291 291 291 291 290 290 290 289 289 289 288
316 317 318 317 314 314 314 311 310 311 312 314 314 315 316 316 316 318 320 318 315 316 316 316 318 319 313 310 310 311 311 312 312 312 310 309 307 306 306 306 305 304 303 303 302 302 302 302 302 301 301 300 300 300 300 300 300 299 298 297 296 295 295 294 293 293 292 291 291 291 291 291 291 291 291 291 291 290 290 290 290 289 289 289 288 288
314 315 317 318 316 314 312 310 310 310 310 312 313 314 315 316 317 317 317 316 316 317 316 316 319 318 311 307 308 308 307 308 310 311 311 310 308 307 307 306 305 304 303 302 302 302 302 302 302 301 301 301 300 300 300 299 299 298 298 297 296 295 295 294 293 292 291 291 290 290 290 291 291 291 291 291 290 290 290 290 289 289 288 288 288 288
316 316 317 319 319 317 315 313 313 311 310 312 313 313 314 316 317 316 314 314 317 319 318 318 320 318 312 308 307 307 307 306 307 309 311 311 310 308 307 306 305 305 303 302 302 302 302 302 302 301 301 301 300 300 300 299 299 298 298 297 296 295 294 293 292 291 291 290 290 290 290 290 291 291 291 291 290 290 290 289 289 289 288 288 288 288
317 317 317 319 322 322 321 319 317 315 311 311 313 314 314 315 316 316 315 316 317 319 319 318 319 318 312 309 308 308 307 307 308 307 308 309 310 308 307 306 305 305 304 303 302 302 302 302 302 302 301 301 300 300 300 299 299 298 298 297 296 294 293 292 292 291 290 290 290 290 290 290 291 291 290 290 290 290 289 289 289 288 288 288 288 287
314 316 317 319 321 322 320 319 317 316 314 313 314 314 315 315 316 316 316 317 317 317 318 318 318 318 314 310 310 310 308 309 309 308 307 307 308 308 307 306 305 305 304 303 303 303 302 302 302 302 301 301 300 300 300 299 299 298 297 296 295 293 293 292 291 290 290 289 290 290 290 290 290 291 290 290 290 289 289 289 289 288 288 288 287 287
314 315 316 318 319 319 317 315 315 315 315 315 315 314 314 315 316 316 316 317 317 317 318 318 319 319 316 312 311 312 310 309 310 309 308 306 306 307 306 305 305 304 304 303 303 303 302 302 302 302 301 301 300 300 300 300 299 298 297 296 295 293 293 292 291 290 289 289 289 290 290 290 290 290 290 290 290 289 289 289 288 288 288 288 287 287
315 315 316 317 317 317 316 313 313 314 315 315 315 315 314 314 315 315 315 316 317 317 318 318 319 319 317 313 312 312 312 311 311 311 309 307 306 306 305 305 304 304 304 303 303 303 302 302 302 302 302 301 301 300 300 299 299 298 297 295 294 293 293 293 291 290 289 289 289 290 290 290 291 290 290 290 289 289 289 288 288 288 288 287 287 287
314 315 316 318 317 316 317 314 313 314 314 314 315 315 314 314 314 314 314 314 315 316 316 317 318 318 316 314 313 313 313 312 311 309 308 307 305 305 304 304 304 303 303 304 303 303 302 302 302 302 301 301 301 300 300 299 299 298 296 295 295 294 294 293 291 289 289 289 289 290 290 290 290 290 290 290 289 289 289 288 288 288 288 288 288 287
312 315 316 316 316 316 316 315 314 315 315 315 315 315 315 314 314 313 313 313 314 315 314 315 316 315 314 314 313 311 310 310 309 307 307 306 305 304 304 303 304 304 304 304 303 302 302 302 302 302 302 302 302 301 300 300 299 298 297 296 295 295 294 294 291 289 289 289 289 290 290 290 290 290 290 290 289 289 288 288 288 288 288 288 288 288
311 313 313 314 316 317 315 314 313 313 313 314 315 315 314 313 313 313 313 312 313 313 314 314 315 314 313 313 312 308 307 308 307 307 307 306 306 305 304 305 305 305 304 303 302 303 303 303 302 302 302 302 301 301 300 300 299 298 298 297 296 295 295 293 291 289 289 289 289 290 290 290 290 290 290 289 289 289 288 288 288 288 288 288 288 288
310 312 312 313 317 316 312 312 312 311 313 315 315 315 315 313 313 312 312 312 312 312 313 313 314 313 312 312 311 309 309 309 307 308 308 307 307 306 306 307 307 305 304 304 305 305 305 305 304 303 303 302 301 301 301 301 300 300 299 298 297 296 295 292 291 289 289 289 289 290 290 290 290 290 290 289 289 288 288 288 288 288 288 288 288 288
309 311 312 313 316 313 308 309 311 313 316 315 311 312 314 314 314 313 313 312 311 311 312 312 313 313 312 312 311 311 310 309 308 309 310 309 308 307 306 306 306 306 305 306 306 306 306 305 304 303 302 301 300 301 301 301 300 300 299 298 297 296 295 293 291 290 289 289 289 289 290 290 290 290 290 289 289 288 288 288 288 288 288 288 288 288
309 310 311 313 313 309 307 310 314 316 315 309 304 305 309 312 314 314 313 313 312 311 311 311 311 312 311 310 309 309 308 308 309 309 309 308 308 307 306 306 306 306 306 306 306 306 306 305 304 303 302 301 300 300 301 301 300 299 298 298 297 296 295 293 291 290 289 289 289 289 290 290 290 290 290 289 288 288 288 288 288 288 288 288 288 287
309 310 311 312 310 308 308 312 315 315 311 305 301 300 304 307 310 312 313 313 312 311 311 310 310 310 309 307 307 307 307 307 306 306 306 307 307 306 306 306 306 307 307 306 307 306 306 304 303 302 302 301 300 300 300 300 299 298 298 298 297 296 295 294 292 290 289 289 288 289 290 290 290 290 289 289 288 288 288 288 288 288 288 288 287 287
309 310 311 311 310 309 309 311 313 312 311 308 304 302 304 307 309 311 312 312 310 310 310 310 310 310 308 305 303 304 304 304 303 304 305 306 306 305 305 306 306 306 305 305 304 304 304 303 302 301 301 300 299 300 300 299 298 297 297 297 297 296 295 294 292 291 290 289 288 289 289 290 290 290 289 288 288 288 288 288 288 288 288 288 287 287
306 309 310 311 311 310 310 311 311 312 313 311 307 304 303 304 306 308 310 311 309 308 308 309 310 310 307 302 300 301 302 303 304 305 305 306 306 305 305 305 305 304 303 301 301 302 302 302 302 301 300 299 299 300 300 300 298 297 296 297 297 296 296 294 293 292 291 290 289 288 289 290 290 290 289 288 288 288 288 288 288 288 288 288 287 287
303 305 307 310 311 311 311 312 312 312 312 310 304 300 299 301 304 306 308 309 307 304 305 308 309 308 305 301 298 300 303 305 306 306 305 305 305 305 305 305 303 302 300 299 299 299 300 301 301 301 300 300 300 300 299 299 297 296 297 297 297 297 296 295 295 294 293 291 289 288 288 289 290 290 289 288 288 288 288 288 288 288 288 288 287 287
303 305 307 310 312 311 311 311 311 311 310 306 300 297 297 299 303 307 309 308 303 300 302 306 306 305 303 300 299 301 304 306 306 304 302 302 302 302 303 302 301 300 298 298 297 297 297 298 298 299 299 299 299 298 298 297 297 297 297 297 297 296 296 296 295 294 293 291 289 288 288 289 290 290 289 288 288 288 288 288 288 288 288 288 287 287
304 305 306 309 310 310 311 311 311 311 309 303 299 297 297 299 304 307 308 304 299 297 300 303 304 304 302 300 300 302 304 304 302 300 298 298 298 298 299 299 299 298 297 297 296 296 296 296 297 297 297 297 297 297 296 296 296 296 296 296 296 296 295 295 294 294 293 290 289 288 288 290 291 290 289 288 288 288 288 288 288 288 288 287 287 286
305 305 306 307 309 310 311 310 311 311 307 300 297 296 297 302 306 305 302 299 297 298 300 302 303 303 303 302 301 302 302 301 299 298 296 296 296 296 297 297 296 296 296 296 296 296 296 296 296 296 296 296 296 296 296 295 295 294 294 294 294 293 293 293 293 293 291 290 289 289 289 290 291 290 289 288 288 288 288 288 288 288 288 287 287 286
306 306 306 307 308 308 309 309 312 311 303 297 297 298 299 303 304 300 297 297 297 298 300 300 300 301 301 302 301 301 300 298 298 296 295 295 295 295 296 296 295 296 296 296 295 295 295 296 296 296 296 295 295 294 293 293 293 292 293 293 292 292 293 293 292 292 291 290 290 290 291 291 290 289 289 289 288 288 288 288 288 288 287 287 287 286
306 307 306 307 308 308 309 309 309 306 300 297 300 302 301 301 301 298 297 297 296 297 298 298 298 298 299 299 299 299 298 297 296 295 295 295 294 294 295 295 295 295 295 295 295 295 295 295 295 294 294 293 293 292 292 292 292 292 292 292 292 292 292 292 292 292 291 291 291 291 291 291 290 289 289 289 288 288 288 288 288 287 287 287 287 286
305 304 304 305 307 307 306 305 302 299 298 298 299 300 300 300 299 298 298 298 297 297 297 297 297 297 297 297 297 297 297 296 296 295 294 294 294 294 294 294 294 294 294 294 294 294 293 293 293 292 292 292 292 292 291 291 291 291 291 291 291 292 292 292 292 291 291 291 291 291 290 290 290 289 289 289 288 288 288 288 287 287 287 287 286 286
299 299 300 302 304 304 302 299 297 298 298 298 298 299 299 299 297 297 297 297 297 297 297 297 297 297 296 296 296 295 296 295 295 294 294 294 294 294 294 294 294 294 294 293 293 292 292 292 292 292 292 292 292 291 291 291 291 291 291 291 291 291 292 291 291 291 291 291 290 290 290 290 290 289 289 289 288 288 288 287 287 287 287 287 286 286
296 296 298 300 303 304 302 298 296 296 297 297 297 298 298 298 297 297 297 296 296 296 296 296 296 296 296 296 295 295 295 295 294 294 294 294 294 294 293 293 293 293 293 293 292 292 292 292 292 292 292 292 292 292 292 292 292 291 291 291 291 291 291 291 291 291 291 291 290 290 290 290 290 289 289 289 289 288 287 287 287 287 286 286 286 286
298 297 298 299 301 301 298 295 293 294 295 296 297 297 297 297 298 297 297 297 296 296 296 295 295 295 295 295 295 295 295 294 294 294 294 294 294 293 293 293 293 293 293 292 292 292 292 292 292 292 292 292 292 292 292 292 292 291 291 291 291 291 291 291 291 291 291 291 290 290 290 290 290 289 289 289 288 288 287 287 287 286 286 286 285 285
298 297 297 298 299 297 295 293 293 294 295 295 296 297 298 298 298 297 297 297 296 296 296 295 295 295 295 295 295 295 294 294 294 294 294 293 293 293 293 293 293 293 293 293 292 292 292 292 292 292 292 292 292 291 291 291 291 291 291 291 291 291 291 291 291 291 291 291 290 290 290 290 290 289 289 289 288 287 287 286 286 286 285 285 285 285
297 298 298 297 298 298 296 294 294 296 297 296 296 298 299 298 298 297 297 296 296 296 296 295 295 295 295 295 294 294 294 294 294 294 294 293 293 293 293 293 293 293 293 293 293 292 292 292 292 292 292 292 292 291 291 291 291 291 291 291 291 291 291 291 291 291 291 290 290 290 290 290 289 289 289 288 288 287 286 286 285 285 285 284 284 284
297 299 298 297 298 298 297 295 295 297 298 297 297 298 298 297 297 297 296 296 296 296 295 295 295 295 295 294 294 294 294 294 294 294 294 293 293 293 293 293 293 293 293 293 293 292 292 292 292 292 292 292 292 291 291 291 291 291 291 291 291 291 291 291 291 291 290 290 290 290 290 289 289 289 288 287 287 286 285 285 285 284 284 284 284 284
Wind_Speed
7 6 6 8 9 9 11 14 13 8 5 5 6 7 8 8 9 6 2 5 2 4 9 11 12 14 13 8 11 12 11 10 10 9 8 8 7 6 5 5 5 5 9 12 12 12 12 12 11 11 13 13 12 13 15 15 15 15 15 15 15 16 17 16 14 13 12 10 9 9 9 9 10 8 7 6 5 5 4 5 4 3 4 3 2 2
5 7 9 12 11 7 7 11 12 7 5 7 7 8 8 8 9 6 3 5 4 3 8 11 13 13 15 11 10 13 10 10 12 11 10 9 7 6 6 6 6 7 11 11 12 12 12 13 13 13 14 16 15 16 17 16 15 15 15 15 14 14 14 14 13 12 12 11 10 10 9 10 11 10 8 8 9 8 8 8 8 8 8 8 8 8
6 9 12 12 6 1 1 4 8 8 8 8 6 7 7 6 8 6 4 5 3 3 6 9 11 11 14 11 10 13 11 10 10 9 8 9 9 8 7 7 7 8 9 11 12 13 13 14 15 15 16 17 17 18 18 17 16 15 14 14 14 14 13 13 13 13 14 14 13 12 13 13 13 13 12 12 13 12 12 12 11 12 12 12 12 13
7 7 11 10 5 4 4 4 6 7 8 8 6 6 7 6 6 6 3 4 4 5 5 7 8 10 12 8 9 11 10 8 7 7 6 8 8 8 9 9 8 9 10 12 13 14 15 16 17 17 17 18 18 19 18 17 16 15 15 16 16 16 15 15 15 16 16 16 15 14 15 14 15 15 14 15 15 14 13 13 13 13 13 13 13 13
10 2 3 8 7 7 8 7 8 7 6 9 9 8 8 7 7 7 2 0 4 7 6 6 8 9 12 13 9 7 6 6 7 8 8 10 10 9 11 12 10 10 12 14 15 15 17 18 18 19 19 19 19 20 19 19 18 18 18 19 19 19 18 19 18 17 17 16 15 14 14 13 14 14 14 14 15 14 13 13 13 13 13 13 12 12
11 2 5 7 6 8 9 7 9 8 6 8 10 12 12 11 10 10 6 3 6 7 5 4 8 6 5 11 9 7 6 7 9 11 12 13 13 11 13 14 14 15 14 15 17 18 19 20 20 20 21 21 21 22 21 21 21 21 21 20 20 20 19 18 18 17 16 14 13 12 11 11 12 13 13 13 13 13 13 13 13 13 13 12 12 12
4 4 5 7 6 8 9 8 9 9 7 7 4 6 10 11 10 10 8 3 5 6 2 3 7 5 3 5 6 7 7 9 9 10 13 14 14 13 14 14 17 19 19 18 19 21 22 22 22 23 24 24 24 24 24 24 23 23 22 21 20 19 18 17 16 15 13 12 11 10 10 10 11 11 13 13 13 13 13 12 12 12 12 11 11 11
5 7 5 6 7 8 8 8 8 9 8 5 2 0 4 7 8 9 8 6 6 6 2 5 6 7 7 4 6 7 7 8 9 9 11 13 13 14 14 14 16 19 21 22 23 24 24 25 25 25 26 26 25 25 25 24 23 22 21 19 18 17 16 15 14 13 11 10 10 9 9 10 11 11 12 13 13 13 12 11 11 11 11 11 11 11
4 9 9 9 9 8 7 5 6 11 8 2 3 2 2 2 5 6 6 6 6 6 5 7 6 5 8 4 6 7 7 8 10 11 12 13 15 15 15 15 16 19 22 24 25 27 28 28 28 27 27 26 26 25 24 23 22 21 19 18 17 16 15 14 13 12 11 10 9 9 8 8 10 11 12 13 12 12 11 10 10 10 10 10 10 11
2 2 4 8 9 7 4 3 2 7 5 3 6 4 4 2 1 3 5 5 5 7 8 8 8 6 8 4 6 5 5 9 9 10 12 15 17 17 17 17 17 21 24 25 27 29 30 30 29 28 27 26 25 24 23 22 20 19 18 17 16 15 14 14 13 11 11 10 9 8 7 7 9 11 11 12 11 11 9 9 9 9 9 9 10 10
3 2 1 4 4 1 5 7 6 1 4 8 7 4 4 3 2 2 4 3 5 9 9 10 13 10 6 4 6 5 4 7 8 10 12 16 19 19 19 19 20 24 28 29 30 31 31 31 30 28 27 25 24 23 22 20 19 18 17 16 14 13 13 13 13 11 10 9 8 8 7 8 9 10 10 10 10 10 8 8 8 8 8 9 9 10
4 3 1 3 2 4 7 5 4 4 4 6 5 4 4 3 3 3 4 4 7 8 4 5 9 12 8 4 3 4 4 5 8 11 14 17 21 22 21 21 22 27 31 31 32 32 32 31 30 29 27 25 24 22 21 20 18 17 16 15 13 12 12 12 12 11 10 9 8 8 9 9 9 10 9 9 9 8 7 7 7 8 8 9 10 11
5 7 6 4 4 7 7 4 3 2 3 5 5 6 5 4 4 5 5 6 7 5 2 2 3 8 10 8 6 3 6 6 6 9 16 21 23 25 24 22 24 30 33 33 33 33 32 31 30 29 27 26 24 22 21 19 18 16 15 14 12 12 12 12 12 11 11 10 10 9 9 9 9 9 8 7 7 6 6 6 6 7 8 9 11 12
3 6 8 6 3 10 12 8 6 4 6 9 8 8 7 6 6 7 6 6 6 2 2 2 2 4 6 8 10 6 5 6 5 6 17 25 26 26 25 24 27 32 34 34 34 34 33 32 31 30 28 26 24 23 21 19 18 16 15 14 12 12 12 12 12 12 12 11 10 10 9 9 8 8 7 6 5 5 5 5 5 6 7 9 11 13
6 4 9 10 6 13 16 11 8 6 8 10 8 8 8 7 7 6 5 5 4 1 2 2 3 4 4 1 1 2 5 6 5 5 12 21 24 24 24 25 30 34 35 35 35 35 34 34 32 30 29 27 25 23 21 19 18 16 15 14 13 12 13 13 13 13 12 11 10 10 9 9 8 7 6 5 5 4 4 3 4 6 7 10 11 12
9 5 8 8 6 16 16 9 7 7 7 7 6 8 9 6 5 4 1 1 1 1 2 5 4 4 3 3 4 5 4 5 5 5 11 18 22 23 23 25 32 36 37 37 37 36 36 35 33 31 29 27 25 23 22 20 18 16 15 14 13 13 13 14 14 13 13 12 11 11 10 9 9 7 6 5 4 3 1 2 3 6 7 9 10 10
7 2 6 5 3 10 9 4 7 5 3 6 6 8 4 1 3 2 1 2 1 6 4 6 5 4 2 3 6 7 5 6 7 7 12 18 21 23 22 25 34 38 39 40 39 38 38 36 34 32 30 28 26 24 22 20 18 17 15 14 14 14 15 15 15 14 13 12 12 12 11 10 9 7 6 4 2 1 1 2 3 5 6 7 8 9
5 2 3 6 4 4 2 2 3 1 1 5 6 6 4 3 3 2 4 2 3 8 5 6 9 7 6 4 5 7 7 8 8 9 12 17 21 22 22 26 35 40 39 40 40 39 39 37 35 33 30 28 26 24 23 21 19 17 16 15 15 15 17 16 15 14 14 14 14 13 12 11 9 7 5 4 3 3 2 2 3 4 6 7 8 10
5 4 2 3 3 4 2 1 4 2 1 0 2 4 4 3 5 5 5 5 6 8 5 6 10 9 8 6 5 9 11 10 11 11 12 16 20 22 22 26 34 38 39 41 42 41 40 39 36 34 32 29 27 25 23 22 20 19 17 17 17 17 17 16 16 15 16 16 15 14 13 11 9 7 6 6 5 4 3 3 4 5 6 8 9 11
5 5 3 0 1 5 5 5 8 7 4 1 2 4 3 2 4 5 5 4 5 7 6 5 6 6 8 9 10 13 13 12 14 12 12 16 21 25 25 27 35 42 44 44 44 43 43 40 38 35 33 31 29 27 25 24 22 20 20 19 19 19 18 18 17 17 18 17 16 14 13 11 10 9 8 7 6 5 4 4 4 5 7 9 11 12
4 5 4 1 2 5 5 7 11 11 9 6 6 8 6 3 1 2 5 5 4 6 6 7 6 3 3 5 9 13 12 12 15 13 12 16 22 25 26 31 40 46 47 47 47 46 44 42 39 36 34 31 30 29 27 25 24 23 22 22 21 21 20 19 19 19 19 18 16 15 13 12 11 10 9 9 7 6 5 4 5 7 8 10 12 13
5 5 6 3 4 7 5 4 5 4 6 9 9 10 10 8 5 4 6 6 4 4 4 5 8 3 3 1 0 4 6 9 14 14 13 17 23 25 26 33 43 48 48 50 50 48 46 43 40 38 36 34 33 31 29 27 26 25 24 24 23 22 21 21 21 21 20 18 17 16 15 13 13 12 11 9 8 6 5 5 6 7 9 10 12 13
2 3 7 5 4 5 2 3 2 2 2 5 7 8 8 8 8 8 7 4 4 3 1 2 7 3 2 2 4 4 4 3 9 13 13 16 22 24 26 30 39 46 49 50 50 49 46 44 41 39 38 37 35 32 30 29 28 27 26 25 24 24 24 23 22 21 20 20 19 17 16 15 14 13 12 10 8 6 6 6 7 8 10 11 12 14
4 1 6 5 2 2 3 3 2 2 2 5 7 6 7 10 10 7 3 1 4 5 3 3 8 4 2 3 4 3 3 3 3 9 12 14 18 22 23 25 32 41 45 47 47 47 46 44 43 42 41 39 36 34 33 32 30 29 28 27 26 26 26 25 23 23 22 21 20 18 17 16 15 14 12 10 8 7 6 7 7 9 10 12 13 14
7 4 6 6 5 5 4 4 4 4 5 7 8 8 9 10 8 2 1 0 5 7 8 7 9 3 3 1 2 1 1 1 2 6 10 13 15 19 21 23 29 36 40 43 45 46 47 47 46 45 43 41 38 37 36 34 32 30 29 28 28 27 27 26 25 24 24 22 21 20 19 18 16 14 12 10 8 7 7 7 8 10 11 12 14 15
8 4 7 9 10 10 8 6 6 6 6 5 8 12 13 13 10 5 2 6 9 6 8 10 9 2 4 1 2 2 3 4 5 6 8 10 13 18 23 26 29 34 40 44 47 48 49 48 48 46 44 42 40 39 37 35 33 32 30 30 30 29 28 27 27 26 25 24 22 21 20 19 17 15 12 10 9 8 7 7 9 10 12 13 14 16
3 3 10 13 12 9 4 2 1 6 9 9 12 15 15 16 15 8 5 9 7 3 8 12 9 5 3 5 6 5 6 6 5 7 8 10 12 16 23 27 29 34 40 44 48 49 50 49 49 48 45 43 41 40 38 36 34 33 33 32 31 30 29 29 28 28 27 25 23 22 21 19 17 15 13 11 10 8 7 8 10 11 12 14 15 16
2 6 13 15 16 9 2 2 1 3 9 13 15 17 16 15 16 13 13 12 5 3 12 11 8 10 10 8 8 8 7 6 6 7 10 11 12 14 18 23 26 30 36 42 46 50 51 51 50 48 47 44 43 41 39 37 35 34 34 33 32 31 31 30 30 29 28 26 25 23 22 20 18 15 14 12 10 8 8 9 10 12 13 14 16 17
2 7 10 12 16 14 3 2 1 2 3 6 11 16 17 17 19 19 20 17 9 9 16 8 10 14 12 9 11 10 8 8 7 8 9 9 11 15 17 20 24 28 35 41 46 50 53 52 51 49 48 46 44 43 40 38 37 37 36 34 33 32 32 31 31 31 30 28 27 25 23 21 19 16 14 12 10 9 9 10 11 12 13 15 17 18
2 6 6 6 12 15 9 4 2 1 1 3 6 11 14 18 20 19 19 18 13 16 17 7 5 10 7 7 11 8 7 7 6 7 8 7 11 16 18 20 24 28 33 40 46 50 52 52 51 50 48 47 47 45 42 40 39 39 37 35 33 33 32 32 32 32 31 30 28 26 24 22 19 17 15 13 11 10 10 11 12 12 14 15 17 19
3 4 3 4 6 11 8 5 3 3 2 3 7 10 11 11 13 14 15 13 12 17 17 10 8 9 5 5 4 5 5 6 6 7 8 8 11 15 18 20 23 27 32 38 43 46 48 49 49 49 49 49 50 47 44 42 41 40 37 35 34 34 33 33 33 34 33 32 30 27 24 22 20 18 16 14 12 11 12 12 12 12 14 16 18 19
5 3 3 4 7 8 6 7 6 3 1 5 13 16 12 7 7 9 11 11 13 16 15 12 12 9 4 5 3 3 5 6 6 8 9 10 13 16 19 22 24 28 32 36 38 41 44 46 47 49 51 51 51 48 45 43 41 39 36 35 34 34 34 35 35 36 35 33 31 28 25 24 21 19 17 15 13 13 13 12 12 13 14 16 18 20
6 5 3 5 7 4 2 6 7 5 2 7 14 13 13 12 9 9 10 12 13 11 10 11 12 6 3 5 4 4 5 6 9 12 14 14 16 19 23 25 27 29 30 30 32 35 38 41 44 48 51 51 51 49 46 43 40 36 34 33 34 35 36 37 37 37 36 35 32 29 26 25 23 20 18 16 14 14 13 13 12 13 14 16 18 19
5 6 4 5 4 2 1 5 7 5 5 7 6 4 13 19 18 15 14 14 12 10 9 10 7 2 3 7 8 7 9 11 15 19 20 20 21 23 25 25 24 25 25 25 26 28 29 33 38 43 47 49 49 47 44 40 35 32 31 33 35 36 36 37 37 38 37 36 33 30 27 25 24 22 19 16 15 15 14 13 13 13 14 16 17 19
6 6 4 3 2 2 3 6 6 6 6 2 4 3 4 10 15 15 15 15 14 14 13 12 9 5 6 8 9 9 13 17 18 20 21 22 24 25 24 22 19 19 20 21 22 23 25 28 33 38 43 46 46 42 39 35 32 30 31 33 35 36 36 36 38 38 38 37 34 31 29 27 26 23 20 17 17 16 14 13 13 13 14 16 18 20
6 5 3 2 3 2 3 7 6 3 1 2 2 3 4 4 4 8 10 13 14 13 12 13 14 11 7 8 9 8 10 13 15 18 21 22 23 23 21 18 17 17 18 19 20 23 23 24 26 30 35 39 40 37 34 31 29 29 30 32 34 34 35 36 38 38 38 37 35 32 30 29 27 24 20 19 19 17 15 14 14 14 15 16 18 20
4 4 3 3 3 2 3 6 3 6 5 3 3 5 6 4 5 7 7 10 10 10 11 11 12 12 7 8 9 8 8 7 7 12 19 21 21 20 18 17 16 16 17 17 19 20 19 18 19 20 25 30 32 32 30 28 27 27 29 31 33 34 35 36 37 38 38 37 36 34 33 31 28 25 22 21 20 18 16 16 15 15 16 18 20 21
1 2 3 4 3 3 3 4 2 4 7 3 4 5 6 4 6 7 4 6 4 9 14 13 11 11 7 7 8 9 7 4 4 8 16 21 21 19 18 18 18 17 17 17 18 17 16 15 15 15 19 24 28 29 28 27 26 26 28 31 32 33 34 35 36 36 36 37 37 36 34 31 28 26 24 22 21 19 18 17 16 17 18 19 21 22
1 0 1 3 3 4 4 5 5 6 5 1 4 3 4 7 9 8 1 5 3 7 14 15 10 9 8 11 12 10 6 5 5 6 12 17 20 21 21 20 19 18 18 18 17 17 17 16 16 16 18 23 27 28 28 27 26 25 27 29 30 31 33 34 34 34 35 36 36 36 35 32 30 28 25 23 21 20 20 19 18 19 20 21 22 23
2 2 3 5 6 7 7 5 5 5 2 2 5 4 5 9 11 7 1 4 2 4 9 11 8 7 12 17 14 8 5 7 4 3 7 9 12 16 20 20 19 19 19 18 18 18 17 17 18 19 21 24 26 26 26 25 24 24 24 25 27 29 30 29 29 30 31 33 34 35 35 33 31 29 26 24 23 23 22 21 21 21 21 22 23 23
3 2 4 6 7 9 10 7 5 4 2 4 6 9 11 10 6 5 3 2 4 5 7 10 10 10 15 19 15 9 10 12 6 2 3 5 7 12 16 19 19 18 18 18 18 17 17 17 19 19 21 22 23 22 22 21 21 22 21 22 24 26 25 24 25 27 28 30 32 33 34 34 32 30 28 26 26 26 25 24 23 23 22 23 24 24
4 3 4 5 6 7 8 6 5 4 2 7 8 9 11 7 2 4 4 6 8 9 10 11 12 13 16 21 21 15 13 13 9 5 4 5 8 11 14 17 17 17 18 18 17 17 17 18 19 19 19 19 19 19 18 19 19 20 20 22 24 24 23 24 24 24 26 28 30 32 33 34 33 32 31 29 29 28 27 26 25 24 23 24 25 24
5 5 4 5 5 3 3 5 5 4 3 15 14 6 3 2 2 10 11 7 8 11 12 13 12 12 16 20 21 18 13 11 10 9 8 9 10 10 12 14 15 16 17 17 17 18 18 18 19 19 18 18 17 17 17 18 19 20 22 24 24 23 23 23 23 23 25 27 29 31 33 34 34 34 33 32 31 31 30 28 27 26 25 25 25 25
4 5 3 3 5 5 4 7 3 2 8 19 13 3 5 6 9 15 12 6 7 10 12 14 13 12 15 17 18 19 16 12 11 11 10 10 9 10 11 12 14 15 17 18 18 19 19 19 18 18 18 18 17 17 17 18 19 20 23 24 22 22 24 24 23 24 26 28 29 31 32 34 35 36 35 35 34 34 33 31 30 28 27 26 26 26
3 3 1 1 5 4 2 2 2 3 13 19 5 4 10 14 11 11 8 7 11 11 11 14 14 13 15 17 17 18 17 14 12 12 11 10 9 10 10 12 14 15 16 18 19 19 19 18 18 18 18 18 17 17 17 17 18 20 22 20 20 22 24 25 26 27 27 28 29 31 32 34 36 37 38 38 38 37 36 34 32 30 28 27 27 27
1 0 2 1 2 2 1 4 3 2 10 14 4 5 14 15 11 10 8 9 12 11 11 13 14 13 15 16 15 15 15 13 12 11 10 9 9 10 11 12 14 15 17 19 19 18 18 18 18 18 18 18 17 17 17 17 19 21 21 19 20 24 25 26 28 29 29 30 31 31 33 35 37 38 39 40 40 40 39 37 33 31 30 29 28 28
1 3 2 1 3 3 1 4 5 3 5 10 6 6 12 14 12 10 9 9 11 12 13 13 12 13 14 14 13 13 12 11 10 9 9 10 11 12 13 14 15 16 18 19 19 19 19 18 18 18 18 18 18 18 18 20 22 23 22 22 24 26 28 29 31 31 32 32 32 33 34 36 38 39 40 42 42 42 41 38 35 32 32 31 29 28
4 7 5 5 6 4 1 3 4 3 2 9 11 9 10 13 13 11 10 10 11 12 13 14 14 15 14 13 12 12 12 12 12 12 12 13 14 14 15 16 17 18 20 21 21 21 21 21 20 19 19 20 20 20 22 24 25 26 26 26 27 29 30 32 33 34 34 35 35 36 36 37 39 40 41 42 43 43 42 39 36 35 33 31 30 29
6 7 5 4 4 3 1 2 3 3 2 5 13 14 13 12 13 13 12 14 15 15 14 14 14 15 14 14 13 14 14 15 15 15 15 16 16 16 17 18 19 20 22 23 24 24 24 23 23 22 22 23 22 21 23 25 27 28 29 30 31 32 33 34 35 36 37 38 39 39 40 40 41 41 41 42 43 43 42 39 37 36 34 32 30 30
6 5 4 4 4 3 3 6 8 4 1 4 13 18 17 16 15 15 15 16 17 17 16 14 14 15 17 17 17 17 17 17 17 17 17 17 17 17 18 19 21 23 24 25 26 26 26 26 25 24 25 26 24 23 24 25 27 29 31 33 34 35 36 36 37 37 39 40 41 41 42 42 43 43 42 43 42 42 40 39 38 37 35 32 30 30
9 7 5 6 3 1 7 14 15 8 2 5 11 16 18 18 17 17 17 18 18 16 15 15 15 17 17 17 17 18 18 18 18 18 18 18 18 19 19 20 22 23 25 27 28 29 29 29 28 28 28 28 26 25 26 27 28 29 32 33 35 36 37 37 38 38 39 40 40 41 41 42 43 43 42 42 41 40 39 39 38 37 35 33 31 30
Wind_Direction
194 209 214 224 230 227 219 219 233 258 289 296 286 275 272 267 269 270 131 117 146 250 255 256 259 261 260 225 175 171 179 194 204 199 203 205 202 206 203 206 194 196 220 216 201 193 185 177 171 162 147 140 136 132 133 134 132 131 129 130 132 132 130 131 130 126 125 128 129 133 142 142 135 132 128 118 118 120 107 100 101 98 83 67 55 46
192 222 229 231 239 246 236 227 234 252 260 263 268 266 261 256 264 266 140 126 144 242 263 263 263 258 262 255 179 164 182 199 204 203 205 202 193 197 197 192 188 206 216 202 190 187 177 172 167 158 149 144 138 132 131 132 131 129 129 129 128 126 125 127 128 126 126 126 125 131 135 132 129 127 124 116 109 102 95 91 89 86 80 76 75 72
212 230 235 237 236 191 213 231 234 245 250 254 252 254 259 255 265 257 153 137 161 238 270 272 270 263 264 255 178 174 195 193 194 194 191 191 188 192 190 184 184 192 196 187 183 179 170 168 165 158 152 147 141 137 135 135 134 130 127 125 121 117 116 115 117 117 115 115 117 120 119 118 118 118 115 108 101 95 93 91 87 83 78 75 73 70
224 236 235 224 186 169 208 213 223 241 243 242 237 244 252 246 260 258 173 140 183 231 278 292 281 271 267 244 172 179 192 168 167 175 171 180 183 186 184 178 176 173 174 177 177 173 168 166 164 159 153 149 145 142 142 141 139 134 128 125 123 121 120 118 116 115 113 113 115 115 113 115 115 111 108 104 99 95 93 90 85 80 75 71 68 65
239 250 190 193 189 211 224 208 210 232 239 231 227 234 250 249 248 256 261 82 235 233 240 270 281 271 255 234 197 161 168 171 174 180 184 188 183 181 182 176 168 166 170 174 173 170 168 164 161 159 153 150 148 146 146 144 140 136 131 128 127 126 124 122 120 117 115 115 116 116 116 117 114 110 107 105 102 97 93 88 83 78 72 67 63 59
240 151 131 179 187 209 221 217 207 217 247 243 224 223 242 260 262 266 282 315 285 261 197 214 271 278 245 228 201 149 173 194 182 188 193 188 186 185 184 179 172 170 168 172 173 168 165 161 158 155 153 151 149 147 144 141 137 134 132 129 128 126 124 123 121 119 119 121 121 121 122 120 119 119 115 109 103 98 93 85 80 75 70 65 59 56
224 138 153 182 184 199 215 231 212 204 243 260 235 213 232 258 266 266 269 254 274 285 146 183 260 278 275 227 168 148 194 195 183 198 194 184 184 182 179 178 177 175 170 170 171 166 160 158 157 155 154 152 149 146 142 139 137 134 132 130 128 126 124 121 120 119 120 121 122 123 124 125 127 125 118 110 103 97 90 85 81 75 69 64 58 54
154 165 179 184 197 209 215 235 213 192 229 257 33 115 214 247 257 252 252 239 260 289 210 193 235 274 277 239 149 161 195 194 195 206 195 186 184 178 175 174 175 177 174 169 166 163 159 157 157 156 153 151 148 145 142 140 137 135 133 132 130 128 125 123 121 121 120 119 120 122 126 129 127 121 114 108 101 95 91 87 83 77 70 63 56 50
147 180 188 189 203 217 217 238 191 187 223 247 81 72 141 240 262 247 242 242 257 278 252 206 191 252 267 216 150 173 200 210 205 198 193 189 183 177 176 172 171 175 174 169 164 161 159 158 157 156 153 150 148 145 143 141 138 137 137 135 134 132 130 129 126 124 124 124 126 129 133 133 125 117 111 107 102 98 94 88 82 75 68 60 51 45
73 187 205 202 211 220 190 55 96 196 219 146 121 98 93 107 233 218 239 249 249 253 254 223 186 224 272 230 170 176 214 225 205 186 187 184 180 179 176 172 172 175 173 168 165 162 161 159 157 156 153 150 148 146 145 143 142 141 141 140 140 139 137 133 131 130 130 132 135 134 134 130 121 115 110 108 104 99 93 86 81 74 66 58 48 41
90 68 321 224 221 196 112 70 31 30 132 139 146 126 125 159 156 194 233 240 255 252 245 225 204 214 271 257 193 182 209 215 185 169 176 177 177 178 177 174 174 177 174 168 167 165 163 161 158 157 154 152 152 150 148 147 147 146 145 145 145 144 141 137 135 138 139 141 142 138 133 127 119 114 111 110 106 102 98 90 83 74 64 55 44 35
167 171 186 178 159 110 111 97 48 48 129 158 172 167 170 185 170 211 218 199 248 255 233 213 206 209 232 251 194 136 133 179 172 167 172 174 176 177 177 176 176 180 177 171 170 168 165 163 161 160 158 157 156 154 153 152 150 150 148 148 150 148 145 142 143 148 152 154 152 146 139 129 120 115 114 112 109 107 100 88 77 67 55 44 33 24
206 207 180 138 161 175 165 139 103 96 189 193 189 180 195 211 197 221 213 201 237 244 108 95 182 215 235 249 240 172 127 151 165 170 174 172 173 176 176 174 176 181 179 174 173 171 168 167 165 164 163 162 161 159 158 155 153 153 150 151 155 154 152 154 157 160 163 162 156 148 139 129 122 119 118 115 111 107 96 82 70 55 42 31 21 13
204 210 182 164 184 195 191 182 169 173 185 193 190 183 197 212 221 233 219 220 236 214 89 104 165 235 254 253 242 213 124 113 108 149 173 172 172 174 172 171 177 182 181 179 177 174 171 170 170 169 167 166 165 163 161 159 157 157 155 157 162 165 165 167 168 166 166 163 155 149 141 134 130 129 129 126 120 113 98 84 64 43 30 18 9 4
218 246 183 179 170 177 192 212 206 173 174 195 198 197 209 215 230 239 226 236 241 142 125 157 172 218 215 177 201 122 93 97 94 120 162 168 169 167 165 171 180 183 183 183 180 178 175 174 174 174 171 170 168 166 165 163 163 162 162 163 169 175 176 174 172 170 169 166 160 155 151 148 148 149 147 141 131 119 98 72 40 18 9 2 357 352
229 257 165 159 139 163 184 216 203 165 170 193 197 210 222 233 249 262 273 282 359 356 206 186 219 247 195 114 105 114 117 128 124 130 155 163 164 162 163 173 182 185 186 186 184 180 179 178 179 177 175 174 172 171 170 169 169 169 169 170 174 183 184 180 178 176 173 171 167 166 166 165 164 162 157 148 137 126 87 15 360 356 354 350 345 341
223 258 135 132 131 168 184 196 178 177 173 172 191 208 207 336 299 258 218 99 79 276 244 175 221 260 223 193 150 144 155 148 146 155 163 165 165 166 168 175 184 188 189 189 186 184 183 183 182 181 179 178 177 176 175 174 174 175 177 179 182 187 189 186 182 179 179 180 180 179 177 175 173 169 167 168 176 202 269 319 336 340 340 338 334 334
216 263 156 169 175 163 19 43 167 292 47 153 193 188 123 34 322 264 253 225 215 258 249 182 215 224 210 214 150 155 178 169 168 171 168 169 170 173 175 179 187 190 191 192 189 187 188 186 185 184 183 182 181 180 179 179 179 180 183 187 190 193 193 190 186 185 188 190 190 188 184 182 181 181 188 199 216 234 252 286 311 323 325 329 331 334
205 237 196 174 177 133 86 174 188 229 253 218 247 167 141 222 225 198 229 247 232 245 255 217 218 218 215 207 156 177 194 181 173 172 174 177 178 181 180 179 187 191 193 194 192 192 191 189 188 187 186 186 185 184 184 184 184 185 187 191 194 197 196 194 193 194 197 197 196 193 189 189 192 196 207 215 224 233 246 271 295 312 321 329 335 337
196 227 224 96 68 132 148 202 198 189 190 309 290 199 184 250 230 202 212 237 239 244 260 240 215 217 220 201 178 187 193 178 171 174 186 186 182 184 181 179 187 193 196 196 195 195 194 191 190 190 189 189 188 188 188 188 189 191 193 195 196 197 197 198 201 202 202 200 198 197 196 198 203 208 215 221 226 234 247 267 291 313 324 332 334 335
181 215 225 133 101 159 179 205 204 194 183 186 202 200 193 186 221 268 236 228 245 253 256 257 253 238 192 191 190 190 184 173 172 177 186 187 185 186 183 184 190 194 197 198 197 197 196 192 192 192 192 193 192 192 192 192 193 195 197 199 199 200 201 203 206 206 205 203 200 201 204 207 210 214 219 224 227 235 249 272 298 316 325 330 332 333
187 203 209 173 173 204 207 194 206 210 193 194 200 200 199 192 184 225 229 211 220 252 255 268 275 269 109 59 187 167 166 169 173 174 178 184 187 187 187 191 195 196 198 199 199 199 196 193 194 194 195 196 195 194 194 195 197 200 201 203 203 203 205 208 210 208 207 206 205 206 209 211 215 217 220 224 228 238 257 283 304 316 324 329 331 331
145 195 211 201 190 198 154 84 64 350 276 246 236 218 209 202 195 210 223 191 179 227 315 305 278 281 80 29 35 56 44 99 163 170 173 181 185 188 190 193 196 199 200 201 201 200 197 195 196 197 198 199 198 197 197 199 201 203 203 205 205 207 209 211 211 211 210 209 209 210 212 215 217 219 221 224 231 245 266 288 305 317 325 329 330 328
89 157 207 207 191 143 116 113 100 50 281 257 248 229 218 216 209 214 245 153 184 205 175 229 254 256 68 20 26 47 34 42 155 174 171 175 182 188 191 189 195 201 202 202 202 200 198 198 199 200 201 201 200 199 201 202 204 204 205 207 209 210 212 212 211 212 213 212 211 212 214 216 217 219 222 226 236 252 270 290 308 319 325 328 327 326
166 181 190 200 225 211 185 188 193 191 205 224 226 216 218 220 209 191 50 259 239 213 183 219 248 223 105 11 359 65 150 138 193 188 177 176 179 184 187 188 195 201 202 202 203 201 201 202 202 203 204 204 202 202 204 205 205 206 207 210 211 212 213 213 213 214 214 213 212 213 215 217 218 221 224 231 241 255 273 294 310 318 323 325 324 323
176 184 176 193 218 216 210 218 210 186 177 206 217 208 208 207 199 190 184 224 240 207 178 219 243 196 104 181 242 217 204 203 192 190 191 185 182 187 191 194 198 202 204 205 204 204 204 205 206 206 207 206 205 206 206 206 207 209 210 212 213 213 213 214 215 215 215 214 214 215 216 218 220 223 227 234 244 257 275 295 309 316 320 321 321 321
170 225 195 205 221 215 204 259 179 131 154 194 205 199 201 202 201 204 215 224 225 184 208 225 230 237 206 190 217 217 201 210 199 184 194 195 189 191 196 199 201 204 207 207 206 206 206 208 208 209 209 209 209 209 209 209 210 211 213 214 213 214 215 216 217 216 216 216 216 216 218 220 222 225 230 236 244 258 276 294 306 313 315 317 318 318
169 227 210 217 232 232 123 55 357 151 181 202 201 197 201 202 201 205 218 220 169 166 240 225 187 228 228 185 201 212 195 211 211 190 198 201 193 189 194 199 202 206 208 208 208 208 208 210 210 210 211 212 212 213 212 213 214 215 217 216 214 215 216 218 219 218 217 217 217 218 219 222 224 227 231 236 244 257 275 292 302 308 311 314 315 317
182 227 216 215 233 240 212 127 265 240 219 220 205 201 200 198 200 205 217 221 191 209 247 227 172 218 227 185 196 201 189 204 206 196 198 195 193 193 193 197 202 207 208 208 210 211 211 212 211 211 213 214 215 215 214 214 216 217 218 216 216 217 219 221 221 220 219 219 218 219 221 223 226 229 231 235 244 257 273 287 297 304 309 312 314 317
189 228 213 195 231 241 227 199 197 187 253 276 231 217 206 203 206 209 217 223 219 232 250 249 205 236 236 195 197 186 179 193 188 194 200 190 195 197 196 200 204 208 210 211 213 214 214 214 214 214 215 217 218 217 215 216 218 219 218 218 218 220 222 223 222 221 221 220 220 221 222 224 227 229 231 235 244 257 271 283 294 302 308 312 315 317
201 218 149 135 231 241 219 189 177 189 222 278 261 246 226 206 203 210 222 224 226 241 249 253 263 260 228 180 172 140 153 170 172 196 207 207 208 203 202 207 211 215 217 216 215 215 216 216 216 216 217 220 222 219 217 218 220 221 221 221 222 224 225 225 223 222 222 222 222 223 223 225 227 229 232 236 245 257 269 280 291 301 307 311 313 315
195 209 94 137 223 235 207 185 188 177 71 274 259 244 220 191 178 199 219 217 214 231 240 243 253 248 179 136 112 126 161 174 189 203 207 215 220 216 214 216 221 224 222 219 217 218 219 219 218 219 221 223 224 222 220 220 222 223 224 224 225 227 227 226 223 223 223 223 224 224 223 225 228 230 233 237 246 257 267 277 288 299 306 308 310 312
185 188 153 179 210 232 204 176 169 133 114 250 251 225 193 194 202 206 221 222 216 221 227 232 243 244 144 148 174 189 182 187 206 214 218 223 224 225 226 228 232 231 226 224 225 225 226 226 225 225 224 225 225 224 222 222 224 226 227 227 229 231 229 226 224 225 225 225 225 224 223 226 229 232 234 238 247 257 264 275 286 296 301 304 307 310
175 188 187 189 199 210 153 136 139 158 206 241 266 192 182 196 203 207 220 221 211 208 220 237 248 223 145 176 187 194 199 206 218 224 229 232 231 232 234 233 235 234 230 230 231 232 234 235 232 230 228 228 227 225 224 225 226 229 231 231 233 234 231 228 227 227 228 227 226 224 224 228 231 233 235 239 248 255 262 272 282 290 296 301 306 310
165 182 188 184 169 146 129 135 159 209 226 242 351 1 186 194 196 204 222 225 215 211 221 234 240 214 181 190 195 198 205 213 223 228 231 236 237 236 233 229 228 230 232 236 239 244 247 244 239 236 234 233 230 227 225 225 225 228 231 232 235 236 234 231 229 230 230 229 227 225 226 230 233 234 236 241 247 253 258 267 275 283 291 298 304 307
164 173 168 169 158 122 147 181 197 261 275 129 61 14 37 67 156 192 229 238 225 216 217 225 235 236 209 190 195 197 204 213 225 232 234 236 235 229 226 228 231 236 241 245 248 252 253 251 247 245 242 239 232 225 221 219 221 227 232 234 236 236 235 233 231 231 231 230 228 226 228 232 235 235 237 241 246 249 254 261 269 277 286 294 300 303
166 175 165 184 181 140 180 209 254 324 293 201 139 174 177 150 156 176 222 244 221 205 210 217 234 237 208 177 185 187 188 204 230 240 234 229 226 223 226 235 240 243 246 247 248 250 251 251 250 247 244 237 227 218 215 218 224 231 234 233 233 233 233 233 232 233 234 233 230 227 229 234 236 237 238 241 245 247 251 257 265 273 282 290 296 300
174 187 178 192 193 156 180 216 244 280 260 222 115 161 175 145 147 161 207 255 210 187 199 206 224 229 194 148 160 162 160 191 237 240 229 225 225 228 233 239 240 240 239 238 240 240 239 240 239 235 231 225 219 216 220 229 235 236 233 230 228 229 231 232 234 236 236 235 232 229 230 235 238 238 239 242 244 246 250 256 262 270 278 286 293 298
42 357 190 199 198 180 191 218 219 231 248 157 100 114 116 116 126 119 113 265 213 175 191 198 213 217 175 155 159 151 153 212 235 242 235 232 233 234 236 237 234 232 232 232 234 232 230 230 226 219 215 215 217 221 226 232 235 233 229 227 225 227 229 231 233 235 236 235 233 231 232 237 240 239 239 242 244 245 249 255 261 268 275 282 289 294
185 197 206 211 211 205 205 221 232 243 254 131 131 140 136 136 135 128 224 257 204 176 191 188 187 178 163 162 161 153 186 218 227 245 238 237 237 233 233 233 229 228 229 229 229 228 226 224 221 217 215 215 218 222 225 227 227 226 226 225 225 226 229 232 235 236 236 236 234 232 233 238 240 239 239 243 244 244 249 254 259 264 270 278 285 290
191 200 207 213 220 217 215 224 248 257 203 146 150 152 143 133 142 181 216 184 160 185 186 169 169 172 169 170 172 186 216 219 218 239 238 241 233 220 219 222 222 222 223 223 224 224 222 221 220 219 218 218 219 221 221 221 222 224 226 226 227 230 234 238 240 240 239 237 235 233 235 239 240 239 240 243 243 244 248 252 257 262 267 274 281 288
176 179 202 217 222 221 224 232 251 263 168 129 133 145 145 141 198 200 145 119 148 168 169 168 176 184 186 188 193 202 211 213 216 230 231 219 212 206 206 209 210 213 215 217 219 221 220 219 217 215 214 215 216 219 221 224 228 232 234 234 236 241 244 244 243 241 240 238 236 237 239 242 241 239 240 243 243 244 248 252 255 259 263 270 278 286
173 167 190 214 203 198 233 220 227 276 148 134 129 132 177 211 149 138 130 125 147 159 170 179 183 190 199 203 205 207 208 208 212 216 206 196 194 196 200 202 205 210 214 215 217 218 218 218 217 217 216 216 219 221 225 230 234 237 239 241 243 247 247 245 243 241 240 239 240 242 244 244 241 240 241 243 244 246 249 251 254 257 260 266 275 284
188 181 195 216 188 182 217 209 205 342 162 157 143 124 186 167 130 129 133 150 172 173 183 188 190 201 211 212 210 209 211 213 213 209 199 193 195 199 202 206 210 213 216 217 218 217 217 216 216 217 218 219 221 224 227 232 236 238 241 244 245 245 244 243 240 238 238 239 242 244 247 245 242 241 243 245 246 247 249 250 252 255 259 264 272 281
213 192 206 223 187 185 210 186 70 71 166 171 153 67 153 159 143 134 139 164 176 180 189 194 199 210 216 217 214 211 213 216 214 208 202 202 207 210 211 215 218 221 221 218 216 214 214 215 215 215 217 219 222 225 229 234 239 243 247 250 247 243 242 240 238 237 237 240 243 246 248 248 245 244 245 247 248 249 250 251 252 254 258 263 269 277
313 56 353 5 184 207 52 119 108 103 166 172 154 115 154 165 160 150 156 172 181 190 200 204 210 219 224 226 222 215 215 215 213 212 212 216 222 224 225 226 227 227 224 219 216 215 215 217 218 218 221 225 228 232 237 243 248 252 257 256 249 245 243 240 239 239 240 242 244 247 250 250 249 248 248 249 250 251 251 252 252 254 258 262 266 274
184 165 190 218 201 214 193 127 116 90 162 175 170 147 162 174 173 166 175 188 193 201 208 212 219 225 232 237 228 217 217 220 222 229 235 241 245 241 238 238 236 233 229 224 223 224 224 225 228 230 234 240 244 248 251 254 257 259 260 256 249 246 245 242 242 242 243 244 246 247 250 252 252 252 252 252 252 253 253 253 254 255 259 262 265 272
179 161 177 224 219 201 135 90 73 45 157 187 196 189 179 185 190 190 198 204 205 209 213 217 223 226 232 237 230 225 227 228 231 237 240 245 251 250 247 244 240 238 235 230 229 231 233 235 239 243 248 253 257 259 259 259 259 259 257 255 252 249 247 246 245 246 246 246 247 248 250 252 254 254 254 254 254 254 254 255 255 256 258 261 265 270
143 155 174 201 196 170 103 110 108 49 29 211 213 208 197 198 206 209 213 217 219 219 219 222 227 229 232 234 234 235 237 236 237 239 238 240 245 248 250 250 246 243 240 237 237 239 242 244 246 249 254 258 261 264 263 261 261 259 256 254 253 251 250 249 249 250 250 250 251 251 252 254 255 256 256 256 255 255 255 255 255 256 258 261 265 270
148 174 171 151 175 207 183 162 163 152 76 209 211 208 205 210 219 223 226 229 230 230 232 233 235 236 236 236 237 240 243 244 246 246 245 245 245 246 249 251 250 247 244 241 242 244 245 247 249 251 256 260 263 265 265 263 261 259 258 256 254 252 252 252 252 253 254 255 256 256 257 258 258 258 257 257 256 255 255 255 255 256 258 262 265 270
190 203 173 155 189 197 147 163 177 182 164 186 200 206 210 217 226 231 235 238 240 242 244 246 247 249 249 249 248 248 249 250 251 252 253 254 255 254 252 250 251 252 249 245 245 246 246 247 250 252 257 261 264 265 266 266 262 260 259 258 257 255 253 253 254 255 257 259 260 261 261 261 261 260 259 258 257 256 255 255 255 256 259 263 267 272